[[{"header":{"parameterUnit":"m.s-1","parameterCategory":1,"la1":30.2991,"la2":30.254,"lo1":-89.0895,"lo2":-89.0444,"dy":0.0017,"dx":0.0017,"nx":28,"ny":28,"refTime":"2025-07-26T03:00:00:Z","depth":0,"parameterNumber":2,"parameterNumberName":"U-component_of_WINDS"},"data":[0,0,0,0,0,0,0,0,0,0,0,0,0,0,0,0,0,0,0,0,0,0,0,0,0,0,0,0,0,0,0,0,0,0,0,0,0,0,0,0,0,0,0,0,0,0,0,0,0,0,0,0,0,0,0,0,0,0,-0.7174,-0.7175,0,-0.7225,-0.7225,-0.7226,-0.7287,-0.7288,-0.7289,-0.729,-0.7337,-0.7338,-0.7338,0,0,0,0,0,0,0,0,0,0,0,0,0,-0.7129,-0.7129,-0.7174,-0.7175,-0.7176,-0.7225,-0.7225,-0.7226,-0.7287,-0.7288,-0.7289,-0.729,-0.7337,-0.7338,-0.7338,0,0,0,0,0,0,0,0,0,0,0,0,0,-0.7161,-0.713,-0.7174,-0.7212,-0.7216,-0.7225,-0.7225,-0.7226,-0.7287,-0.7288,-0.729,-0.7291,-0.7337,-0.7338,-0.7338,-0.7312,0,0,-0.734,-0.734,0,0,0,0,0,0,0,0,-0.7159,-0.7162,-0.7206,-0.7209,-0.7214,-0.7251,-0.7227,-0.7255,-0.7286,-0.726,-0.729,-0.7292,-0.7307,-0.731,-0.7316,-0.7314,-0.7317,-0.734,-0.734,-0.734,-0.734,0,0,0,0,0,0,0,-0.7157,-0.716,-0.7194,-0.7206,-0.7211,-0.7226,-0.7232,-0.7232,-0.7274,-0.7262,-0.7267,-0.7272,-0.731,-0.7316,-0.7318,-0.7317,-0.734,-0.734,-0.7341,-0.7341,-0.7299,-0.7298,0,0,0,0,0,0,-0.7149,-0.7158,-0.7193,-0.7196,-0.7189,-0.7225,-0.7232,-0.7238,-0.7275,-0.7282,-0.7271,-0.7275,-0.7314,-0.7317,-0.732,-0.7294,-0.734,-0.7341,-0.7341,-0.7301,-0.7299,-0.7298,0,0,0,0,0,0,-0.7148,-0.7152,-0.7191,-0.7178,-0.7184,-0.7225,-0.723,-0.7238,-0.7244,-0.7281,-0.7289,-0.7269,-0.7315,-0.7319,-0.7315,-0.7296,-0.7341,-0.7342,-0.7303,-0.73,-0.7298,-0.724,0,0,0,0,0,0,-0.7146,-0.7151,-0.7142,-0.7178,-0.7185,-0.7185,-0.7229,-0.7238,-0.7245,-0.7251,-0.7282,-0.7288,-0.7317,-0.7314,-0.7315,-0.7298,-0.7342,-0.7304,-0.7302,-0.7299,-0.7244,-0.7236,-0.723,0,0,0,0,0,-0.7144,-0.7122,-0.7141,-0.7145,-0.7174,-0.7184,-0.7188,-0.7222,-0.7244,-0.7235,-0.7259,-0.7287,-0.7298,-0.7313,-0.7315,-0.7297,-0.7306,-0.7302,-0.7299,-0.7247,-0.7238,-0.723,0,0,0,0,0,0,-0.708,-0.7127,-0.7149,-0.7137,-0.7156,-0.7194,-0.7183,-0.7211,-0.7223,-0.7227,-0.7268,-0.7274,-0.7265,-0.7281,-0.7296,-0.7276,-0.7306,-0.7303,-0.7266,-0.7257,-0.725,-0.7247,-0.7342,0,0,0,0,0,-0.7065,-0.7069,-0.711,-0.7096,-0.7104,-0.7142,-0.7147,-0.7173,-0.7193,-0.7201,-0.7225,-0.7243,-0.7251,-0.7255,-0.7264,-0.7247,-0.7255,-0.7236,-0.7229,-0.7223,-0.722,-0.7214,-0.7207,-0.7287,-0.7287,-0.7287,0,0,-0.7033,-0.7059,-0.7059,-0.7083,-0.7101,-0.7105,-0.7148,-0.7149,-0.7153,-0.7201,-0.7199,-0.7217,-0.724,-0.723,-0.7227,-0.7243,-0.72,-0.7219,-0.7214,-0.7214,-0.721,-0.7202,-0.7196,-0.7285,-0.7285,-0.7286,0,0,-0.6976,-0.6996,-0.6988,-0.7006,-0.7033,-0.7059,-0.7057,-0.7091,-0.7106,-0.7105,-0.7142,-0.7146,-0.7158,-0.7174,-0.7183,-0.7136,-0.7163,-0.7138,-0.7101,-0.7094,-0.7088,-0.7083,-0.7067,-0.7061,-0.7135,-0.7135,-0.7134,0,-0.6932,-0.694,-0.698,-0.698,-0.699,-0.7036,-0.7028,-0.7043,-0.7071,-0.7077,-0.7095,-0.7113,-0.7132,-0.7127,-0.7116,-0.7121,-0.7121,-0.7134,-0.7086,-0.7081,-0.7077,-0.7062,-0.7056,-0.7131,-0.7132,-0.7132,-0.7132,0,-0.6886,-0.6891,-0.688,-0.6909,-0.6918,-0.6914,-0.6952,-0.6957,-0.6982,-0.7006,-0.7005,-0.703,-0.7046,-0.7046,-0.7069,-0.7045,-0.7055,-0.7079,-0.711,-0.7065,-0.7052,-0.7047,-0.7127,-0.7128,-0.7129,-0.713,0,0,-0.6788,-0.6841,-0.6837,-0.6851,-0.6886,-0.689,-0.6889,-0.6906,-0.691,-0.6928,-0.6928,-0.6939,-0.6962,-0.6973,-0.6999,-0.6993,-0.6956,-0.7019,-0.702,-0.7007,-0.6932,-0.6914,-0.6907,-0.6975,-0.6974,-0.6973,-0.6931,0,-0.6738,-0.674,-0.6777,-0.6767,-0.6773,-0.6819,-0.6818,-0.6839,-0.6862,-0.6869,-0.6894,-0.6902,-0.6932,-0.6939,-0.6936,-0.6961,-0.6942,-0.6965,-0.6975,-0.6975,-0.6968,-0.69,-0.688,-0.6839,-0.6926,-0.6925,-0.6924,0,-0.668,-0.6698,-0.669,-0.6728,-0.6731,-0.673,-0.675,-0.6757,-0.6782,-0.68,-0.6813,-0.6844,-0.6845,-0.6875,-0.6878,-0.6893,-0.6899,-0.6912,-0.6912,-0.6914,-0.6947,-0.69,-0.6826,-0.682,-0.6916,-0.6917,-0.6918,0,-0.6611,-0.6633,-0.6632,-0.6642,-0.6686,-0.6684,-0.6702,-0.6729,-0.6738,-0.6755,-0.6762,-0.6778,-0.6787,-0.68,-0.6834,-0.6852,-0.6833,-0.6865,-0.6847,-0.6846,-0.684,-0.684,-0.6766,-0.6844,-0.6844,-0.6844,-0.6844,0,-0.6552,-0.6545,-0.6602,-0.6601,-0.6595,-0.6638,-0.6631,-0.6653,-0.6677,-0.6681,-0.6721,-0.6724,-0.6769,-0.6777,-0.6804,-0.6803,-0.6806,-0.682,-0.6827,-0.6817,-0.6815,-0.6821,-0.6825,-0.6843,-0.6843,-0.6843,-0.6843,0,-0.6473,-0.6511,-0.6513,-0.6555,-0.6566,-0.656,-0.6596,-0.6597,-0.6623,-0.6628,-0.6631,-0.6672,-0.6684,-0.672,-0.674,-0.6758,-0.6749,-0.6763,-0.6741,-0.6746,-0.6726,-0.6727,-0.6653,-0.6646,-0.6728,-0.6727,-0.6726,0,-0.6433,-0.643,-0.6473,-0.648,-0.6496,-0.6506,-0.6516,-0.6558,-0.6567,-0.6598,-0.6595,-0.6611,-0.6625,-0.6642,-0.6673,-0.6689,-0.6704,-0.6677,-0.6706,-0.6696,-0.6704,-0.6704,-0.6704,-0.667,-0.6669,-0.6668,-0.6667,0,-0.6359,-0.6378,-0.6392,-0.6413,-0.6425,-0.6443,-0.6463,-0.6466,-0.6513,-0.6521,-0.6535,-0.6547,-0.6569,-0.6584,-0.6606,-0.6624,-0.6653,-0.6658,-0.6655,-0.6644,-0.6632,-0.6639,-0.6724,-0.6659,-0.666,-0.6661,-0.6661,-0.6661,-0.6299,-0.6299,-0.633,-0.6345,-0.6365,-0.6384,-0.6387,-0.6416,-0.6428,-0.6451,-0.6475,-0.6486,-0.6513,-0.6546,-0.6562,-0.6571,-0.6587,-0.6582,-0.6581,-0.6579,-0.6575,-0.6631,-0.6575,-0.6576,-0.6576,-0.6576,-0.6576,0,-0.6227,-0.625,-0.6263,-0.6292,-0.6304,-0.6333,-0.6357,-0.6365,-0.6375,-0.6399,-0.6414,-0.643,-0.6446,-0.6479,-0.6498,-0.6499,-0.6513,-0.6502,-0.6503,-0.6507,-0.6559,-0.656,-0.6491,-0.6491,-0.6491,-0.6491,-0.6491,-0.6491,-0.6191,-0.6193,-0.6217,-0.623,-0.6253,-0.6265,-0.6277,-0.6295,-0.6314,-0.6332,-0.6346,-0.6368,-0.6396,-0.6417,-0.6433,-0.6443,-0.6448,-0.6433,-0.6446,-0.6495,-0.6503,-0.651,-0.6512,-0.6433,-0.6433,-0.6394,-0.6393,-0.6393]},{"header":{"parameterUnit":"m.s-1","parameterCategory":1,"la1":30.2991,"la2":30.254,"lo1":-89.0895,"lo2":-89.0444,"dy":0.0017,"dx":0.0017,"nx":28,"ny":28,"refTime":"2025-07-26T03:00:00:Z","depth":0,"parameterNumber":3,"parameterNumberName":"V-component_of_WINDS"},"data":[0,0,0,0,0,0,0,0,0,0,0,0,0,0,0,0,0,0,0,0,0,0,0,0,0,0,0,0,0,0,0,0,0,0,0,0,0,0,0,0,0,0,0,0,0,0,0,0,0,0,0,0,0,0,0,0,0,0,5.0486,5.0486,0,5.0473,5.0473,5.0473,5.038,5.0378,5.0375,5.0373,5.036,5.0361,5.0363,0,0,0,0,0,0,0,0,0,0,0,0,0,5.0428,5.043,5.0486,5.0486,5.0486,5.0473,5.0473,5.0473,5.038,5.0378,5.0375,5.0372,5.0359,5.0361,5.0363,0,0,0,0,0,0,0,0,0,0,0,0,0,5.0438,5.043,5.0486,5.0438,5.0434,5.0473,5.0473,5.0473,5.0381,5.0378,5.0374,5.0371,5.0358,5.0361,5.0364,5.0448,0,0,5.0372,5.0373,0,0,0,0,0,0,0,0,5.0438,5.044,5.0445,5.0441,5.0437,5.0425,5.0447,5.0464,5.0382,5.0401,5.0373,5.0369,5.0384,5.0384,5.0389,5.0447,5.0447,5.0372,5.0373,5.0375,5.0375,0,0,0,0,0,0,0,5.0437,5.044,5.0481,5.0445,5.044,5.0416,5.0414,5.045,5.0412,5.0399,5.0392,5.0392,5.0381,5.0387,5.0388,5.0446,5.0372,5.0374,5.0376,5.0377,5.0568,5.0572,0,0,0,0,0,0,5.0443,5.044,5.0481,5.048,5.0429,5.042,5.0418,5.0432,5.0411,5.0405,5.0395,5.0388,5.0384,5.0385,5.0388,5.0481,5.0374,5.0377,5.0378,5.0565,5.0569,5.0573,0,0,0,0,0,0,5.0442,5.0448,5.0482,5.0458,5.0461,5.0425,5.0442,5.0433,5.0439,5.0408,5.04,5.0408,5.0382,5.0384,5.0432,5.0479,5.0378,5.0381,5.0561,5.0566,5.0571,5.0672,0,0,0,0,0,0,5.0441,5.0448,5.048,5.046,5.0463,5.0528,5.0445,5.0436,5.0444,5.0435,5.0419,5.0413,5.0379,5.0429,5.0435,5.0481,5.0383,5.0556,5.0563,5.0569,5.0664,5.068,5.0693,0,0,0,0,0,5.0439,5.051,5.0483,5.0488,5.0502,5.0531,5.0532,5.0492,5.0449,5.048,5.0459,5.0413,5.0474,5.0435,5.0441,5.0489,5.0553,5.0561,5.0569,5.0657,5.0677,5.0693,0,0,0,0,0,0,5.0538,5.0507,5.0476,5.0542,5.054,5.0515,5.0554,5.0515,5.0525,5.0515,5.0465,5.0463,5.0518,5.0509,5.0465,5.0567,5.0505,5.0515,5.0571,5.0589,5.0603,5.0603,5.0385,0,0,0,0,0,5.0567,5.0593,5.0565,5.0626,5.0626,5.0591,5.0602,5.0571,5.0566,5.0565,5.0548,5.0545,5.0563,5.0576,5.0591,5.0663,5.0656,5.0699,5.0713,5.0726,5.0733,5.0767,5.0784,5.0599,5.0599,5.0599,0,0,5.0628,5.0614,5.0634,5.0645,5.064,5.0666,5.059,5.0623,5.0641,5.057,5.0613,5.0601,5.0594,5.0654,5.068,5.0648,5.0783,5.0736,5.0746,5.0747,5.0777,5.0794,5.081,5.0604,5.0603,5.0602,0,0,5.0752,5.0746,5.0794,5.079,5.0782,5.0757,5.0769,5.075,5.0738,5.0782,5.0727,5.0749,5.0783,5.0778,5.0781,5.0901,5.0858,5.0908,5.0983,5.1017,5.1031,5.1044,5.1083,5.1098,5.0917,5.0917,5.0917,0,5.0828,5.0867,5.0824,5.0858,5.0864,5.08,5.0847,5.0845,5.0843,5.0847,5.0812,5.085,5.0842,5.0897,5.0926,5.0932,5.0942,5.0908,5.1033,5.1045,5.1056,5.1093,5.1108,5.0923,5.0922,5.0921,5.0921,0,5.0959,5.0987,5.1026,5.1024,5.1034,5.1076,5.1038,5.1053,5.1021,5.1,5.1043,5.1031,5.104,5.1052,5.1023,5.1103,5.1083,5.1042,5.0978,5.108,5.1114,5.1128,5.0931,5.0929,5.0927,5.0926,0,0,5.1144,5.1116,5.1131,5.1128,5.1114,5.1134,5.1171,5.118,5.1192,5.1194,5.1222,5.125,5.1211,5.1213,5.1183,5.1213,5.1304,5.1166,5.1165,5.1189,5.1388,5.1417,5.1434,5.1276,5.1279,5.1281,5.1387,0,5.1259,5.1321,5.1282,5.1349,5.1372,5.1311,5.1343,5.1337,5.1318,5.1334,5.1313,5.1333,5.1281,5.1282,5.1309,5.1287,5.1343,5.128,5.13,5.1301,5.13,5.1452,5.1484,5.1584,5.1401,5.1403,5.1405,0,5.1402,5.1407,5.1476,5.1454,5.1462,5.1492,5.1495,5.1513,5.1504,5.1488,5.149,5.1451,5.1485,5.1425,5.1469,5.1426,5.1433,5.1423,5.1426,5.1424,5.1357,5.1451,5.1616,5.163,5.1426,5.1424,5.1422,0,5.1524,5.1549,5.1592,5.1592,5.1569,5.1591,5.1582,5.157,5.1577,5.1581,5.1584,5.1592,5.1596,5.1602,5.1565,5.1526,5.1613,5.1551,5.1598,5.1599,5.1617,5.1616,5.1782,5.1628,5.1627,5.1627,5.1627,0,5.1655,5.1699,5.1646,5.1673,5.1719,5.1674,5.1721,5.1706,5.1696,5.1717,5.1667,5.1688,5.164,5.1655,5.1628,5.1666,5.1669,5.1655,5.1647,5.1658,5.1659,5.1659,5.165,5.1631,5.163,5.1629,5.1629,0,5.1799,5.1766,5.1808,5.1783,5.1777,5.1812,5.1789,5.1812,5.1789,5.1817,5.1821,5.1785,5.1801,5.1766,5.1778,5.1758,5.1812,5.1794,5.1815,5.1808,5.1856,5.1851,5.2025,5.2044,5.1881,5.1883,5.1884,0,5.1883,5.1914,5.1891,5.1902,5.1895,5.1913,5.1919,5.1877,5.1885,5.1876,5.1899,5.1911,5.1917,5.1945,5.192,5.1928,5.1907,5.1968,5.1908,5.1917,5.1904,5.1901,5.1902,5.1979,5.1981,5.1983,5.1984,0,5.2034,5.2015,5.2026,5.203,5.2039,5.2041,5.2039,5.205,5.2004,5.2016,5.2031,5.2036,5.2046,5.2057,5.2059,5.2049,5.2008,5.2004,5.2014,5.2024,5.2033,5.2025,5.1844,5.1999,5.1998,5.1997,5.1996,5.1995,5.2147,5.2171,5.2157,5.217,5.2164,5.2163,5.2182,5.2161,5.2173,5.2177,5.2151,5.2171,5.216,5.2158,5.2152,5.2166,5.2139,5.2155,5.2159,5.2163,5.2169,5.2034,5.2167,5.2167,5.2166,5.2166,5.2165,0,5.2292,5.228,5.2292,5.229,5.23,5.2261,5.2256,5.2267,5.2285,5.2277,5.2284,5.23,5.231,5.2286,5.2292,5.2308,5.2289,5.231,5.2307,5.2304,5.2195,5.2183,5.2325,5.2325,5.2325,5.2325,5.2325,5.2325,5.2368,5.2405,5.2385,5.2417,5.2405,5.2423,5.2423,5.2422,5.2415,5.2435,5.2442,5.2426,5.2411,5.2416,5.2422,5.2415,5.2418,5.2445,5.2431,5.2328,5.2313,5.2298,5.2286,5.2447,5.2447,5.2538,5.2539,5.254]}]]